KHY1131 RPVM-RPLL

Flight info

Callsign KHY1131
Flight time N/A
Altitude 38000
Route PARAO4P PARAO DCT ROX DCT LAIYA LAIYA1A
Aircraft A310/H-SDFGHIM1RTUWXY/LB1

Departure

Time 2026-05-08 05:22
Airport Mactan Cebu International Airport (RPVM)

Arrival

Time N/A
Airport Ninoy Aquino International Airport (RPLL)
Time Latitude Longitude Altitude Speed Heading
2026-05-08 05:22 10.34500 124.01437 2275 ft 211 kts 45°
2026-05-08 05:22 10.36428 124.02927 3052 ft 247 kts 10°
2026-05-08 05:22 10.38114 124.02651 3906 ft 260 kts 332°
2026-05-08 05:22 10.39589 124.01598 5017 ft 268 kts 323°
2026-05-08 05:23 10.41041 124.00436 6230 ft 271 kts 322°
2026-05-08 05:23 10.42497 123.99262 7430 ft 274 kts 321°
2026-05-08 05:23 10.43977 123.98073 8589 ft 279 kts 322°
2026-05-08 05:23 10.45488 123.96862 9750 ft 284 kts 321°
2026-05-08 05:24 10.47072 123.95600 10760 ft 298 kts 321°
2026-05-08 05:24 10.48744 123.94278 11415 ft 321 kts 321°
2026-05-08 05:24 10.50562 123.92849 12007 ft 345 kts 321°
2026-05-08 05:24 10.52541 123.91312 12578 ft 369 kts 321°
2026-05-08 05:25 10.54591 123.89743 13441 ft 382 kts 322°
2026-05-08 05:25 10.56740 123.88142 14473 ft 390 kts 323°
2026-05-08 05:25 10.58899 123.86438 15483 ft 396 kts 315°
2026-05-08 05:25 10.60690 123.84338 16504 ft 401 kts 306°
2026-05-08 05:26 10.62324 123.82054 17518 ft 407 kts 304°
2026-05-08 05:26 10.63976 123.79678 18506 ft 413 kts 304°
2026-05-08 05:26 10.65644 123.77312 19420 ft 420 kts 305°
2026-05-08 05:26 10.67370 123.74898 20325 ft 427 kts 305°
2026-05-08 05:27 10.69122 123.72463 21253 ft 433 kts 305°
2026-05-08 05:27 10.70889 123.70012 22177 ft 439 kts 305°
2026-05-08 05:27 10.72690 123.67512 23060 ft 445 kts 305°
2026-05-08 05:27 10.74516 123.64974 23934 ft 452 kts 305°
2026-05-08 05:28 10.76362 123.62407 24831 ft 458 kts 306°
2026-05-08 05:28 10.78252 123.59778 25730 ft 464 kts 306°
2026-05-08 05:28 10.80152 123.57134 26624 ft 472 kts 306°
2026-05-08 05:28 10.82088 123.54429 27812 ft 476 kts 306°
2026-05-08 05:29 10.84015 123.51739 29123 ft 473 kts 306°
2026-05-08 05:29 10.85907 123.49105 30290 ft 469 kts 306°
2026-05-08 05:29 10.87848 123.46411 31053 ft 470 kts 306°
2026-05-08 05:29 10.89766 123.43745 31518 ft 468 kts 306°
2026-05-08 05:30 10.91649 123.41157 31799 ft 465 kts 308°
2026-05-08 05:30 10.96050 123.36562 31863 ft 465 kts 317°
2026-05-08 05:30 10.98434 123.34358 31873 ft 479 kts 317°
2026-05-08 05:31 11.00890 123.32048 31873 ft 490 kts 316°
2026-05-08 05:31 11.05832 123.27306 31869 ft 496 kts 316°
2026-05-08 05:32 11.10718 123.22602 31872 ft 497 kts 316°
2026-05-08 05:32 11.15602 123.17903 31875 ft 498 kts 316°
2026-05-08 05:33 11.20599 123.13094 31880 ft 498 kts 316°
2026-05-08 05:33 11.25619 123.08260 31884 ft 498 kts 316°
2026-05-08 05:34 11.30612 123.03449 31884 ft 498 kts 316°
2026-05-08 05:34 11.35507 122.98730 31884 ft 498 kts 316°
2026-05-08 05:35 11.40482 122.93932 31884 ft 498 kts 316°
2026-05-08 05:35 11.45485 122.89104 31884 ft 498 kts 316°
2026-05-08 05:36 11.50498 122.84264 31884 ft 498 kts 316°
2026-05-08 05:36 11.55494 122.79437 31884 ft 498 kts 316°
2026-05-08 05:37 11.60615 122.74696 31879 ft 498 kts 322°
2026-05-08 05:37 11.66355 122.70753 31887 ft 499 kts 327°
2026-05-08 05:38 11.72148 122.66897 31884 ft 499 kts 326°
2026-05-08 05:38 11.77876 122.62972 31884 ft 499 kts 326°
2026-05-08 05:39 11.83609 122.59050 31884 ft 499 kts 326°
2026-05-08 05:39 11.89353 122.55122 31884 ft 499 kts 326°
2026-05-08 05:40 11.95087 122.51199 31885 ft 499 kts 326°
2026-05-08 05:40 12.00825 122.47271 31885 ft 499 kts 326°
2026-05-08 05:41 12.06578 122.43330 31885 ft 499 kts 326°
2026-05-08 05:41 12.12296 122.39411 31883 ft 499 kts 326°
2026-05-08 05:42 12.18067 122.35455 31882 ft 499 kts 326°
2026-05-08 05:42 12.23797 122.31524 31884 ft 499 kts 325°
2026-05-08 05:43 12.29485 122.27619 31885 ft 499 kts 325°
2026-05-08 05:43 12.35169 122.23715 31885 ft 499 kts 325°
2026-05-08 05:44 12.40872 122.19797 31885 ft 499 kts 325°
2026-05-08 05:44 12.46551 122.15893 31885 ft 499 kts 325°
2026-05-08 05:45 12.52208 122.12001 31885 ft 499 kts 325°
2026-05-08 05:45 12.57902 122.08083 31885 ft 499 kts 325°
2026-05-08 05:46 12.63630 122.04138 31885 ft 499 kts 325°
2026-05-08 05:46 12.69337 122.00206 31885 ft 499 kts 325°
2026-05-08 05:47 12.75087 121.96242 31885 ft 499 kts 325°
2026-05-08 05:47 12.80758 121.92330 31885 ft 499 kts 325°
2026-05-08 05:48 12.86466 121.88395 31755 ft 487 kts 325°
2026-05-08 05:48 12.89211 121.86505 31621 ft 474 kts 325°
2026-05-08 05:48 12.91877 121.84670 31318 ft 469 kts 325°
2026-05-08 05:48 12.94543 121.82833 30835 ft 468 kts 325°
2026-05-08 05:49 12.97221 121.80982 30380 ft 465 kts 325°
2026-05-08 05:49 12.99829 121.79182 29906 ft 463 kts 325°
2026-05-08 05:49 13.02510 121.77331 29349 ft 460 kts 325°
2026-05-08 05:49 13.05979 121.74941 28421 ft 453 kts 325°
2026-05-08 05:50 13.07659 121.73782 27872 ft 451 kts 325°
2026-05-08 05:50 13.10251 121.71988 27160 ft 445 kts 325°
2026-05-08 05:50 13.12758 121.70252 26610 ft 435 kts 325°
2026-05-08 05:50 13.15215 121.68552 26093 ft 428 kts 325°
2026-05-08 05:51 13.17643 121.66870 25605 ft 424 kts 324°
2026-05-08 05:51 13.20081 121.65182 25076 ft 422 kts 324°
2026-05-08 05:51 13.22513 121.63496 24554 ft 420 kts 324°
2026-05-08 05:51 13.24907 121.61838 24073 ft 416 kts 324°
2026-05-08 05:52 13.27267 121.60203 23584 ft 413 kts 324°
2026-05-08 05:52 13.29610 121.58579 23057 ft 408 kts 324°
2026-05-08 05:52 13.31945 121.56961 22560 ft 402 kts 324°
2026-05-08 05:52 13.34215 121.55387 22105 ft 396 kts 324°
2026-05-08 05:53 13.36478 121.53816 21630 ft 392 kts 324°
2026-05-08 05:53 13.38715 121.52265 21140 ft 390 kts 324°
2026-05-08 05:53 13.40920 121.50734 20699 ft 386 kts 324°
2026-05-08 05:53 13.43139 121.49194 20255 ft 382 kts 324°
2026-05-08 05:54 13.45276 121.47710 19790 ft 379 kts 324°
2026-05-08 05:54 13.47430 121.46215 19321 ft 376 kts 324°
2026-05-08 05:54 13.49567 121.44730 18894 ft 371 kts 324°
2026-05-08 05:54 13.51679 121.43263 18465 ft 367 kts 324°
2026-05-08 05:55 13.53774 121.41808 18026 ft 363 kts 324°
2026-05-08 05:55 13.55861 121.40358 17569 ft 360 kts 324°
2026-05-08 05:55 13.57871 121.38911 17177 ft 355 kts 322°
2026-05-08 05:55 13.60496 121.36952 16825 ft 349 kts 322°
2026-05-08 05:56 13.61811 121.35960 16655 ft 349 kts 322°
2026-05-08 05:56 13.63754 121.34501 16382 ft 345 kts 322°
2026-05-08 05:56 13.65658 121.33080 16079 ft 338 kts 322°
2026-05-08 05:56 13.67518 121.31696 15685 ft 334 kts 322°
2026-05-08 05:57 13.69383 121.30308 15318 ft 329 kts 322°
2026-05-08 05:57 13.71232 121.28931 14941 ft 324 kts 322°
2026-05-08 05:57 13.73029 121.27594 14536 ft 321 kts 322°
2026-05-08 05:57 13.74802 121.26273 14162 ft 317 kts 322°
2026-05-08 05:58 13.76577 121.24951 13818 ft 312 kts 322°
2026-05-08 05:58 13.78241 121.23711 13448 ft 309 kts 322°
2026-05-08 05:58 13.79993 121.22407 13053 ft 306 kts 322°
2026-05-08 05:58 13.81699 121.21136 12691 ft 301 kts 322°
2026-05-08 05:59 13.83352 121.19902 12335 ft 307 kts 322°
2026-05-08 05:59 13.85073 121.18618 11972 ft 307 kts 323°
2026-05-08 05:59 13.86775 121.17349 11671 ft 300 kts 322°
2026-05-08 05:59 13.88428 121.16119 11413 ft 292 kts 322°
2026-05-08 06:00 13.90039 121.14919 11157 ft 285 kts 322°
2026-05-08 06:00 13.91628 121.13735 10899 ft 278 kts 322°
2026-05-08 06:00 13.93163 121.12591 10644 ft 272 kts 322°
2026-05-08 06:00 13.94680 121.11460 10386 ft 265 kts 322°
2026-05-08 06:01 13.96187 121.10334 10140 ft 272 kts 321°
2026-05-08 06:01 13.97719 121.09186 9912 ft 282 kts 321°
2026-05-08 06:01 13.99324 121.07986 9673 ft 287 kts 321°
2026-05-08 06:01 14.00942 121.06780 9377 ft 281 kts 321°
2026-05-08 06:02 14.02506 121.05615 9085 ft 276 kts 321°
2026-05-08 06:02 14.04033 121.04475 8804 ft 271 kts 321°
2026-05-08 06:02 14.06048 121.02970 8397 ft 265 kts 321°
2026-05-08 06:02 14.07038 121.02230 8186 ft 269 kts 321°
2026-05-08 06:03 14.08556 121.01093 7861 ft 273 kts 321°
2026-05-08 06:03 14.10068 120.99963 7605 ft 267 kts 321°
2026-05-08 06:03 14.11568 120.98845 7343 ft 260 kts 321°
2026-05-08 06:03 14.13476 120.97421 6998 ft 253 kts 322°
2026-05-08 06:04 14.14429 120.96711 6826 ft 249 kts 321°
2026-05-08 06:04 14.15767 120.95711 6583 ft 243 kts 321°
2026-05-08 06:04 14.17160 120.94740 6324 ft 243 kts 324°
2026-05-08 06:04 14.18639 120.93811 6097 ft 253 kts 326°
2026-05-08 06:05 14.20170 120.92883 5851 ft 259 kts 327°
2026-05-08 06:05 14.21740 120.91946 5603 ft 265 kts 328°
2026-05-08 06:05 14.23330 120.91000 5359 ft 263 kts 328°
2026-05-08 06:05 14.24898 120.90073 5164 ft 254 kts 329°
2026-05-08 06:06 14.26385 120.89195 5092 ft 244 kts 329°
2026-05-08 06:06 14.27849 120.88335 4859 ft 239 kts 328°
2026-05-08 06:06 14.29274 120.87500 4582 ft 239 kts 330°
2026-05-08 06:06 14.30708 120.86657 4343 ft 238 kts 328°
2026-05-08 06:07 14.32620 120.85535 3961 ft 234 kts 329°
2026-05-08 06:07 14.33545 120.84998 3746 ft 231 kts 330°
2026-05-08 06:07 14.34933 120.84191 3492 ft 223 kts 330°
2026-05-08 06:07 14.36249 120.83422 3213 ft 216 kts 329°
2026-05-08 06:08 14.37526 120.82673 2955 ft 210 kts 333°
2026-05-08 06:08 14.38895 120.82376 2732 ft 195 kts 12°
2026-05-08 06:08 14.40027 120.82978 2596 ft 184 kts 50°
2026-05-08 06:08 14.40843 120.84031 2456 ft 189 kts 57°
2026-05-08 06:09 14.41604 120.85121 2309 ft 191 kts 60°
2026-05-08 06:09 14.42320 120.86205 2127 ft 183 kts 65°
2026-05-08 06:09 14.42901 120.87275 1959 ft 175 kts 65°
2026-05-08 06:09 14.43451 120.88322 1879 ft 164 kts 67°
2026-05-08 06:10 14.43992 120.89360 1749 ft 173 kts 64°
2026-05-08 06:10 14.44572 120.90447 1764 ft 181 kts 66°
2026-05-08 06:10 14.45160 120.91547 1728 ft 171 kts 64°
2026-05-08 06:10 14.45699 120.92546 1646 ft 153 kts 65°
2026-05-08 06:11 14.46147 120.93434 1622 ft 137 kts 68°
2026-05-08 06:11 14.46593 120.94273 1411 ft 131 kts 65°
2026-05-08 06:11 14.47033 120.95060 1192 ft 131 kts 66°
2026-05-08 06:11 14.47470 120.95856 1126 ft 153 kts 65°
2026-05-08 06:12 14.48099 120.97005 902 ft 197 kts 61°
2026-05-08 06:12 14.48747 120.98084 1070 ft 202 kts 61°
2026-05-08 06:12 14.49510 120.99451 1304 ft 220 kts 64°
2026-05-08 06:12 14.50239 121.00729 1329 ft 240 kts 62°